VKG5LC ENTC-ENSB

Flight info

Callsign VKG5LC
Flight time N/A
Altitude 35000
Route LOMVI P600 VAVAD/N0460F370 P600 INPAR
Aircraft A321/M-SDE3FGHIRWY/LB1

Departure

Time 2026-05-05 20:36
Airport Tromsø Airport (ENTC)

Arrival

Time N/A
Airport Svalbard Airport, Longyear (ENSB)
Time Latitude Longitude Altitude Speed Heading
2026-05-05 20:20 69.68050 18.90981 34 ft 0 kts 283°
2026-05-05 20:28 69.68048 18.91007 33 ft 4 kts 283°
2026-05-05 20:28 69.68041 18.91083 33 ft 4 kts 283°
2026-05-05 20:28 69.68035 18.91158 35 ft 4 kts 283°
2026-05-05 20:29 69.68031 18.91208 35 ft 0 kts 283°
2026-05-05 20:31 69.68029 18.91180 35 ft 3 kts 251°
2026-05-05 20:32 69.68022 18.91162 32 ft 1 kts 221°
2026-05-05 20:32 69.68006 18.91149 35 ft 3 kts 188°
2026-05-05 20:32 69.67981 18.91152 35 ft 4 kts 176°
2026-05-05 20:32 69.67953 18.91160 35 ft 4 kts 174°
2026-05-05 20:33 69.67922 18.91168 35 ft 5 kts 175°
2026-05-05 20:33 69.67888 18.91171 35 ft 5 kts 179°
2026-05-05 20:33 69.67852 18.91173 35 ft 5 kts 179°
2026-05-05 20:33 69.67813 18.91157 35 ft 6 kts 192°
2026-05-05 20:34 69.67749 18.91113 35 ft 9 kts 194°
2026-05-05 20:34 69.67695 18.91074 35 ft 7 kts 194°
2026-05-05 20:34 69.67651 18.91079 35 ft 6 kts 153°
2026-05-05 20:34 69.67630 18.91189 36 ft 9 kts 107°
2026-05-05 20:35 69.67621 18.91296 37 ft 1 kts 102°
2026-05-05 20:35 69.67619 18.91337 40 ft 4 kts 94°
2026-05-05 20:35 69.67627 18.91403 38 ft 6 kts 57°
2026-05-05 20:35 69.67756 18.91506 40 ft 47 kts 13°
2026-05-05 20:36 69.68320 18.91884 30 ft 116 kts 13°
2026-05-05 20:36 69.69262 18.92512 205 ft 147 kts 13°
2026-05-05 20:36 69.70232 18.93152 902 ft 143 kts 13°
2026-05-05 20:36 69.71198 18.93800 1583 ft 143 kts 14°
2026-05-05 20:37 69.72170 18.94453 2204 ft 144 kts 14°
2026-05-05 20:37 69.73146 18.95109 2777 ft 145 kts 15°
2026-05-05 20:37 69.74129 18.95771 3322 ft 147 kts 15°
2026-05-05 20:37 69.75182 18.96484 3624 ft 166 kts 15°
2026-05-05 20:38 69.76367 18.97282 3853 ft 188 kts 14°
2026-05-05 20:38 69.77714 18.98189 4058 ft 210 kts 14°
2026-05-05 20:38 69.79238 18.98821 4244 ft 236 kts
2026-05-05 20:38 69.80961 18.98892 4717 ft 255 kts
2026-05-05 20:39 69.82757 18.98968 5594 ft 260 kts
2026-05-05 20:39 69.84569 18.98516 6475 ft 264 kts 349°
2026-05-05 20:39 69.86381 18.97457 7358 ft 267 kts 349°
2026-05-05 20:39 69.88210 18.96362 8279 ft 269 kts 348°
2026-05-05 20:40 69.90043 18.95255 9228 ft 270 kts 348°
2026-05-05 20:40 69.91903 18.94133 10000 ft 278 kts 347°
2026-05-05 20:40 69.93876 18.92940 10280 ft 301 kts 348°
2026-05-05 20:40 69.96008 18.91646 10501 ft 325 kts 348°
2026-05-05 20:41 69.98296 18.90255 10741 ft 345 kts 347°
2026-05-05 20:41 70.00684 18.88808 11321 ft 353 kts 347°
2026-05-05 20:41 70.03105 18.87348 12115 ft 358 kts 347°
2026-05-05 20:41 70.05554 18.85867 12862 ft 362 kts 347°
2026-05-05 20:42 70.08036 18.84355 13586 ft 366 kts 346°
2026-05-05 20:42 70.10543 18.82814 14254 ft 370 kts 346°
2026-05-05 20:42 70.13075 18.81247 14919 ft 374 kts 346°
2026-05-05 20:42 70.15633 18.79665 15549 ft 377 kts 346°
2026-05-05 20:43 70.18216 18.78074 16177 ft 381 kts 346°
2026-05-05 20:43 70.20822 18.76471 16800 ft 385 kts 346°
2026-05-05 20:43 70.23422 18.74869 17416 ft 389 kts 346°
2026-05-05 20:43 70.26082 18.73221 18031 ft 393 kts 346°
2026-05-05 20:44 70.28769 18.71545 18574 ft 396 kts 346°
2026-05-05 20:44 70.31470 18.69853 19129 ft 399 kts 346°
2026-05-05 20:44 70.34193 18.68148 19693 ft 401 kts 347°
2026-05-05 20:44 70.36950 18.66652 20251 ft 404 kts 350°
2026-05-05 20:45 70.42545 18.64361 21392 ft 408 kts 353°
2026-05-05 20:45 70.45383 18.63345 21875 ft 412 kts 353°
2026-05-05 20:45 70.48237 18.62309 22428 ft 414 kts 354°
2026-05-05 20:46 70.51100 18.61222 23006 ft 415 kts 353°
2026-05-05 20:46 70.53983 18.60073 23439 ft 419 kts 353°
2026-05-05 20:46 70.56887 18.58880 23782 ft 424 kts 353°
2026-05-05 20:46 70.59817 18.57661 24191 ft 426 kts 353°
2026-05-05 20:47 70.62753 18.56435 24639 ft 428 kts 353°
2026-05-05 20:47 70.65716 18.55193 24996 ft 431 kts 352°
2026-05-05 20:47 70.68701 18.53942 25312 ft 435 kts 353°
2026-05-05 20:47 70.71707 18.52682 25692 ft 437 kts 353°
2026-05-05 20:48 70.74725 18.51421 26109 ft 439 kts 353°
2026-05-05 20:48 70.77760 18.50156 26417 ft 443 kts 353°
2026-05-05 20:48 70.80829 18.48873 26701 ft 447 kts 353°
2026-05-05 20:48 70.83914 18.47572 27069 ft 449 kts 353°
2026-05-05 20:49 70.87007 18.46257 27507 ft 449 kts 353°
2026-05-05 20:49 70.90095 18.44936 27939 ft 449 kts 353°
2026-05-05 20:49 70.93192 18.43606 28331 ft 450 kts 354°
2026-05-05 20:49 70.96288 18.42278 28798 ft 449 kts 353°
2026-05-05 20:50 70.99377 18.40946 29280 ft 448 kts 353°
2026-05-05 20:50 71.02466 18.39613 29669 ft 448 kts 353°
2026-05-05 20:50 71.05553 18.38277 30018 ft 448 kts 354°
2026-05-05 20:50 71.08642 18.36934 30345 ft 448 kts 353°
2026-05-05 20:51 71.11726 18.35586 30682 ft 448 kts 353°
2026-05-05 20:51 71.14820 18.34240 30952 ft 450 kts 353°
2026-05-05 20:51 71.17927 18.32889 31238 ft 451 kts 352°
2026-05-05 20:51 71.21033 18.31521 31549 ft 451 kts 352°
2026-05-05 20:52 71.24145 18.30143 31845 ft 452 kts 352°
2026-05-05 20:52 71.27261 18.28764 32152 ft 453 kts 352°
2026-05-05 20:52 71.30381 18.27389 32451 ft 453 kts 352°
2026-05-05 20:52 71.33504 18.26008 32761 ft 453 kts 353°
2026-05-05 20:53 71.36624 18.24619 33046 ft 454 kts 352°
2026-05-05 20:53 71.39752 18.23212 33360 ft 454 kts 353°
2026-05-05 20:53 71.42840 18.21821 33656 ft 455 kts 352°
2026-05-05 20:53 71.45972 18.20405 33926 ft 454 kts 353°
2026-05-05 20:54 71.49103 18.18987 34153 ft 455 kts 353°
2026-05-05 20:54 71.52242 18.17566 34349 ft 456 kts 353°
2026-05-05 20:54 71.55379 18.16131 34599 ft 456 kts 353°
2026-05-05 20:54 71.58524 18.14683 34835 ft 456 kts 353°
2026-05-05 20:55 71.61666 18.13238 35075 ft 456 kts 353°
2026-05-05 20:55 71.64813 18.11789 35275 ft 458 kts 353°
2026-05-05 20:55 71.67965 18.10337 35499 ft 458 kts 353°
2026-05-05 20:55 71.71116 18.08879 35725 ft 458 kts 352°
2026-05-05 20:56 71.77427 18.05938 35806 ft 458 kts 352°
2026-05-05 20:56 71.83723 18.02998 35807 ft 457 kts 352°
2026-05-05 20:57 71.90015 18.00042 35814 ft 457 kts 353°
2026-05-05 20:57 71.96306 17.97039 35813 ft 457 kts 353°
2026-05-05 20:58 72.02602 17.94015 35820 ft 458 kts 353°
2026-05-05 20:58 72.08898 17.91002 35826 ft 457 kts 353°